User: anonymous   Login
Location: Unspecified
(0.0000°N, 0.0000°E)
Time: 19:15:54
(UTC+00:00)
Language:

STARLINK-3850 - Orbit

View from above orbital plane
View from above orbital plane
View from above satellite
View from above satellite

Ground track
Ground track

The orbit is defined by the following mean orbital elements,

1 52342U          26145.36550450 +.00000000 +00000-0 +48685-4 0 00000
2 52342  53.2130 215.0267 0001253  83.1018 277.0116 15.08835685    00
Epoch (UTC): 25 May 2026 08:46:19
Eccentricity: 0.0001253
inclination: 53.2130°
perigee height: 539 km
apogee height: 541 km
right ascension of ascending node: 215.0267°
argument of perigee: 83.1018°
revolutions per day: 15.08835685
mean anomaly at epoch: 277.0116°

The dashed part of the orbit path shows where the satellite is in the earth's shadow,  

DLR